This is the latest recevied weather packets stored in our database for station/object IV3ONZ. If no packets are shown the sender has not sent any weather packets the latest 10 day(s).
| Time | Temp. | Humidity | Pressure | Rain* | Wind** | Luminosity | Snow |
|---|---|---|---|---|---|---|---|
| 1777738803 | 22.22° C | 35% | 1023.5 hPa | 0 mm | - | 172 W/m² | - |
| 1777738333 | 22.22° C | 34% | 1023.5 hPa | 0 mm | - | 212 W/m² | - |
| 1777737903 | 22.22° C | 34% | 1023.5 hPa | 0 mm | - | 235 W/m² | - |
| 1777737004 | 22.22° C | 36% | 1023.6 hPa | 0 mm | - | 124 W/m² | - |
| 1777736104 | 22.78° C | 35% | 1024.1 hPa | 0 mm | - | 333 W/m² | - |
| 1777735333 | 22.78° C | 35% | 1023.8 hPa | 0 mm | - | 89 W/m² | - |
| 1777734304 | 23.33° C | 35% | 1024.2 hPa | 0 mm | - | 437 W/m² | - |
| 1777733103 | 23.33° C | 34% | 1024.2 hPa | 0 mm | - | 500 W/m² | - |
| 1777732803 | 23.33° C | 35% | 1024.3 hPa | 0 mm | - | 518 W/m² | - |
| 1777732504 | 23.33° C | 35% | 1024.2 hPa | 0 mm | - | 535 W/m² | - |
| 1777731305 | 23.33° C | 36% | 1024.5 hPa | 0 mm | - | 495 W/m² | - |
| 1777729204 | 22.78° C | 40% | 1024.7 hPa | 0 mm | - | 690 W/m² | - |
| 1777728304 | 22.78° C | 40% | 1025.1 hPa | 0 mm | - | 724 W/m² | - |
| 1777727239 | 22.78° C | 39% | 1024.9 hPa | 0 mm | - | 764 W/m² | - |
| 1777725904 | 23.33° C | 38% | 1025.4 hPa | 0 mm | - | 817 W/m² | - |
| 1777724704 | 22.78° C | 36% | 1025.7 hPa | 0 mm | - | 846 W/m² | - |
| 1777723504 | 23.89° C | 34% | 1025.7 hPa | 0 mm | - | 877 W/m² | - |
| 1777722903 | 23.33° C | 35% | 1025.9 hPa | 0 mm | - | 885 W/m² | - |
| 1777719904 | 22.78° C | 36% | 1026.3 hPa | 0 mm | - | 920 W/m² | - |
| 1777719436 | 22.22° C | 38% | 1026.6 hPa | 0 mm | - | 915 W/m² | - |
| 1777717204 | 22.22° C | 34% | 1026.9 hPa | 0 mm | - | 899 W/m² | - |
| 1777716737 | 22.22° C | 33% | 1026.9 hPa | 0 mm | - | 892 W/m² | - |
| 1777712704 | 20.56° C | 34% | 1027.8 hPa | 0 mm | - | 793 W/m² | - |
| 1777712103 | 20.56° C | 37% | 1027.9 hPa | 0 mm | - | 774 W/m² | - |
| 1777711206 | 21.11° C | 41% | 1028 hPa | 0 mm | - | 739 W/m² | - |
* Rain latest hour (hover to see other rain measurements)
** Current wind speed in m/s (hover to see current wind gust speed)